Regional Weather Roundup
Issued by NWS

Home | Current Version | Previous Version | Text Only | Print | Product List | Glossary Off
Versions: 1 2 3 4 5 6 7 8 9 10 11 12 13 14 15 16 17 18 19 20 21 22 23 24 25 26 27 28 29 30 31 32 33 34 35 36 37 38 39 40 41 42 43 44 45 46 47 48 49 50

247
ASUS43 KOAX 250910
RWRNE

WEATHER ROUNDUP FOR NEBRASKA
NATIONAL WEATHER SERVICE OMAHA NE
400 AM CDT WED MAY 25 2016

NOTES: SATELLITE DATA IS BEING USED TO AUGMENT CLOUD COVER ABOVE
       12000 FEET.
       "FAIR" INDICATES FEW OR NO CLOUDS BELOW 12,000 FEET WITH NO
       SIGNIFICANT WEATHER AND/OR OBSTRUCTIONS TO VISIBILITY.

  * THESE STATIONS DO NOT REPORT WEATHER SUCH AS RAIN...SNOW OR FOG.

NEZ001>004-019>022-054>056-251000-
NEBRASKA PANHANDLE

CITY           SKY/WX    TMP DP  RH WIND       PRES   REMARKS
SCOTTSBLUFF    CLOUDY    52  48  86 NE5       29.89F
ALLIANCE       CLOUDY    52  50  93 N9        29.88S
CHADRON        CLOUDY    47 N/A N/A W7        29.85F
KIMBALL        CLOUDY    46  46  97 NW6       29.89S
SIDNEY         TSTM      53  50  89 NW3       29.90R
$$

NEZ057>060-069>072-079>082-251000-
SOUTHWEST NEBRASKA

CITY           SKY/WX    TMP DP  RH WIND       PRES   REMARKS
NORTH PLATTE   LGT RAIN  57  55  93 CALM      29.87R
IMPERIAL       LGT RAIN  56  50  80 NE14      29.83R
LEXINGTON      TSTM      60  55  85 W8        29.85R
MCCOOK         CLOUDY    60  56  86 N13       29.83R
OGALLALA       LGT RAIN  56  52  86 SE13      29.79F
$$

NEZ005>010-023>029-035>040-094-251000-
NORTH CENTRAL NEBRASKA

CITY           SKY/WX    TMP DP  RH WIND       PRES   REMARKS
VALENTINE      CLOUDY    57  56  96 CALM      29.81S
AINSWORTH      CLOUDY    56  54  94 S5        29.78F
BROKEN BOW     LGT RAIN  59  56  89 NW12      29.82R
O`NEILL        CLOUDY    58  57  94 CALM      29.78R
ORD            CLOUDY    59  57  93 W7        29.80R
THEDFORD       CLOUDY    56  55  96 SE7       29.81R
$$

NEZ041-046>049-061>064-073>077-083>087-251000-
SOUTH CENTRAL NEBRASKA

CITY           SKY/WX    TMP DP  RH WIND       PRES   REMARKS
GRAND ISLAND   CLOUDY    62  56  80 E7        29.81R
AURORA         RAIN      64  59  86 E25       29.75F
HASTINGS       LGT RAIN  62  55  77 SE9G20    29.79F
HEBRON         RAIN      62  57  82 W8        29.82R
HOLDREGE       TSTM      61  59  92 SE16      29.77F
KEARNEY *      CLOUDY    61  55  82 SE10      29.80F
YORK           CLOUDY    66  54  63 SW8       29.80F
$$

NEZ011>018-030>034-042>045-251000-
NORTHEAST NEBRASKA

CITY           SKY/WX    TMP DP  RH WIND       PRES   REMARKS
NORFOLK        MOCLDY    61  55  81 N7        29.80F
ALBION         CLOUDY    59  56  89 NE8       29.76F
BLAIR          LGT RAIN  65  60  85 S9        29.76F
FREMONT        CLOUDY    73  51  47 SW10      29.77R
TEKAMAH        CLOUDY    66  58  75 SE14      29.76R
WAYNE          CLOUDY    67  55  66 W16G28    29.86R
$$

NEZ050>053-065>068-078-088>093-251000-
SOUTHEAST NEBRASKA

CITY           SKY/WX    TMP DP  RH WIND       PRES   REMARKS
LINCOLN        CLOUDY    68  56  65 SE8       29.73R
OMAHA EPPLEY   LGT RAIN  66  60  81 SE10      29.79S
BEATRICE       MOCLDY    69  55  61 SE13      29.71R
FALLS CITY     CLOUDY    64  62  93 CALM      29.83F
NEBRASKA CITY  RAIN      64  63  97 SW12      29.81S
PLATTSMOUTH    LGT RAIN  66  61  84 E10       29.81R
$$

NEZ044-045-051>053-067-251000-
OMAHA AREA

CITY           SKY/WX    TMP DP  RH WIND       PRES   REMARKS
OMAHA EPPLEY   LGT RAIN  66  60  81 SE10      29.79S
BLAIR          LGT RAIN  65  60  85 S9        29.76F
FREMONT        CLOUDY    73  51  47 SW10      29.77R
MILLARD        LGT RAIN  67  58  73 SE13      29.74F
OFFUTT AFB     CLOUDY    64  63  96 E8        29.79R
PLATTSMOUTH    LGT RAIN  66  61  84 E10       29.81R
WAHOO          FAIR      68  56  65 SW7       29.76R
$$




USA.gov is the U.S. government's official web portal to all federal, state and local government web resources and services.